EW2602 Weather Reports


time (UTC)temp
F
wind
direction
speed
knots
gust
knots
rain 1hr
in
rain 24hr
in
rain mn
in
humidity
%
barometer
mb
20211017150116 52 11 0.0 2.6 0.00 0.01 0.00 65 1025.5
20211017144601 51 54 0.0 2.6 0.00 0.01 0.00 68 1025.3
20211017143101 50 303 0.0 0.0 0.00 0.01 0.00 71 1025.2
20211017141604 49 5 0.0 0.0 0.00 0.01 0.00 72 1025.1
20211017140052 49 350 0.0 0.9 0.00 0.01 0.00 71 1024.9
20211017134646 48 5 0.0 0.0 0.00 0.01 0.00 71 1024.9
20211017133030 47 37 0.0 0.0 0.00 0.01 0.00 60 1024.8
20211017131600 46 26 0.0 0.0 0.00 0.01 0.00 53 1024.8
20211017130045 45 24 0.0 0.9 0.00 0.01 0.00 44 1024.7
20211017124532 44 355 0.0 0.0 0.00 0.01 0.00 36 1024.5
20211017121555 43 355 0.0 0.0 0.00 0.01 0.00 31 1024.3
20211017120020 43 355 0.0 0.0 0.00 0.01 0.00 30 1024.2
20211017114507 43 355 0.0 0.0 0.00 0.01 0.00 33 1024.1
20211017113011 44 355 0.0 0.0 0.00 0.01 0.00 34 1024.0
20211017111507 44 355 0.0 0.0 0.00 0.01 0.00 36 1023.8
20211017104643 44 355 0.0 0.0 0.00 0.04 0.00 41 1023.6
20211017103301 44 355 0.0 0.0 0.00 0.04 0.00 43 1023.6
20211017101700 45 355 0.0 0.0 0.00 0.04 0.00 45 1023.4
20211017100154 45 355 0.0 0.0 0.00 0.04 0.00 41 1023.3
20211017094705 45 355 0.0 0.0 0.00 0.05 0.00 44 1023.2
20211017093312 45 355 0.0 0.0 0.00 0.05 0.00 46 1023.2
20211017091619 45 355 0.0 0.0 0.00 0.05 0.00 48 1023.2
20211017090123 45 355 0.0 0.0 0.00 0.05 0.00 49 1023.1
20211017084659 46 355 0.0 0.0 0.00 0.14 0.00 45 1023.1
20211017083053 45 355 0.0 0.0 0.00 0.14 0.00 42 1023.0
20211017081607 45 355 0.0 0.0 0.00 0.14 0.00 39 1022.9
20211017080138 45 355 0.0 0.0 0.00 0.14 0.00 37 1022.8
20211017074610 45 55 0.0 0.0 0.00 0.19 0.00 35 1022.8
20211017073157 45 55 0.0 0.0 0.00 0.19 0.00 43 1022.9
20211017071618 46 55 0.0 0.0 0.00 0.19 0.00 48 1023.0
20211017070118 46 55 0.0 0.0 0.00 0.19 0.00 44 1022.8
20211017064600 46 55 0.0 0.0 0.00 0.19 0.00 47 1022.7
20211017063119 46 55 0.0 0.9 0.00 0.19 0.00 49 1022.7
20211017061550 46 55 0.0 0.0 0.00 0.19 0.00 49 1022.5
20211017060036 46 55 0.0 0.9 0.00 0.19 0.00 51 1022.3
20211017054601 46 55 0.0 0.0 0.00 0.19 0.00 46 1022.2
20211017053049 46 55 0.0 0.0 0.00 0.19 0.00 38 1022.2
20211017051544 45 55 0.0 0.0 0.00 0.19 0.00 37 1022.2
20211017050100 46 55 0.0 0.0 0.00 0.19 0.00 50 1022.2
20211017044522 47 55 0.0 0.0 0.00 0.19 0.19 56 1022.2
20211017043023 47 55 0.0 0.0 0.00 0.19 0.19 63 1022.2
20211017041530 47 55 0.0 0.0 0.00 0.19 0.19 57 1022.2
20211017040007 48 55 0.0 0.0 0.00 0.19 0.19 57 1022.1
20211017034502 48 55 0.0 0.0 0.00 0.19 0.19 59 1022.2
20211017033212 48 55 0.0 0.0 0.00 0.19 0.19 59 1022.2
20211017031635 48 55 0.0 0.0 0.00 0.19 0.19 60 1022.1
20211017030150 49 55 0.0 0.0 0.00 0.19 0.19 62 1022.1
20211017024604 49 55 0.0 0.0 0.00 0.19 0.19 60 1021.9
20211017023143 49 55 0.0 0.0 0.00 0.19 0.19 60 1021.8
20211017021617 49 55 0.0 0.0 0.00 0.19 0.19 63 1021.8
20211017020048 49 55 0.0 0.0 0.00 0.19 0.19 63 1021.5
20211017014548 49 55 0.0 0.0 0.00 0.19 0.19 66 1021.6
20211017013045 50 55 0.0 0.0 0.00 0.19 0.19 69 1021.4
20211017011520 50 55 0.0 0.0 0.00 0.19 0.19 68 1021.3
20211017010013 50 55 0.0 0.0 0.00 0.19 0.19 70 1021.2
20211017004510 51 55 0.0 0.0 0.00 0.19 0.19 71 1021.1
20211017003005 51 55 0.0 0.0 0.00 0.19 0.19 71 1020.9
20211017001703 52 55 0.0 0.0 0.00 0.19 0.19 71 1020.8
20211017000132 52 55 0.0 0.0 0.00 0.19 0.19 70 1020.8
20211016234630 53 340 0.0 0.0 0.00 0.19 0.19 70 1020.5
20211016233053 53 340 0.0 0.0 0.00 0.19 0.19 68 1020.2
20211016231545 54 347 0.0 0.0 0.00 0.19 0.19 68 1020.0
20211016230149 55 333 0.0 0.0 0.00 0.19 0.19 66 1019.9
20211016224549 56 333 0.0 0.0 0.00 0.19 0.19 62 1019.9
20211016223109 56 331 0.0 0.0 0.00 0.19 0.19 61 1019.7
20211016221536 57 341 0.0 0.0 0.00 0.19 0.19 59 1019.6
20211016220025 57 333 0.0 2.6 0.00 0.19 0.19 56 1019.4
20211016214537 58 289 0.0 0.0 0.00 0.19 0.19 56 1019.2
20211016213016 58 335 0.0 4.3 0.00 0.19 0.19 57 1019.1
20211016211509 58 348 0.0 0.0 0.00 0.19 0.19 60 1019.0
20211016210028 59 301 0.0 2.6 0.00 0.19 0.19 55 1019.0
20211016203139 59 338 0.9 5.2 0.00 0.19 0.19 55 1018.7
20211016201642 60 261 0.0 0.0 0.00 0.19 0.19 53 1018.7
20211016200115 60 313 0.0 2.6 0.00 0.19 0.19 58 1018.6
20211016194554 60 316 0.0 5.2 0.00 0.19 0.19 58 1018.5
20211016193053 60 294 0.0 0.0 0.00 0.19 0.19 57 1018.5
20211016191622 60 344 0.0 0.9 0.00 0.19 0.19 56 1018.5
20211016190119 60 311 0.0 0.0 0.00 0.19 0.19 58 1018.4
20211016184527 60 319 0.0 0.0 0.00 0.19 0.19 58 1018.4
20211016183028 60 304 0.0 7.8 0.00 0.19 0.19 59 1018.5
20211016181524 60 350 0.0 5.2 0.00 0.19 0.19 61 1018.5
20211016180021 60 73 0.0 0.9 0.01 0.19 0.19 62 1018.7
20211016174525 60 355 0.9 7.0 0.01 0.19 0.19 65 1018.7
20211016173006 59 344 0.0 0.0 0.01 0.19 0.19 67 1018.9
20211016171801 59 258 0.0 2.6 0.01 0.19 0.19 68 1018.9
20211016171614 59 124 0.0 2.6 0.01 0.19 0.19 68 1019.0
20211016170117 58 325 0.0 2.6 0.00 0.18 0.18 69 1018.8
20211016164734 58 323 0.0 7.0 0.00 0.18 0.18 70 1019.0
20211016163101 57 45 0.9 5.2 0.00 0.18 0.18 69 1019.0
20211016161553 57 5 0.9 7.0 0.00 0.18 0.18 65 1019.0
20211016160110 56 324 0.9 7.8 0.00 0.18 0.18 65 1018.9
20211016154554 56 323 0.0 1.7 0.00 0.18 0.18 49 1018.9
20211016153040 55 52 0.9 3.5 0.00 0.18 0.18 39 1018.8
20211016151539 55 64 0.9 5.2 0.00 0.18 0.18 36 1018.9